Hourly Data Report for October 02, 2017

All times are specified in Local Standard Time (LST). Add 1 hour to adjust for Daylight Saving Time where and when it is observed.

ARMSTRONG (AUT)
ONTARIO

50°17'37.000" N
88°54'19.000" W
322.50 m
6040325
71841
WYW

Download Data

Hourly Data (October 2017)
Hourly Data Report for October 2, 2017
Temp Definition
°C
Dew Point Temp Definition
°C
Rel Hum Definition
%
Wind Dir Definition
10's deg

Wind Spd Definition
km/h
Visibility Definition
km
Stn Press Definition
kPa
Hmdx Definition


Wind Chill Definition


Weather Definition


TIME
00:00 12.3 9.6 84 15 20   97.81     LegendNANA
01:00 12.5 9.9 84 15 22   97.79     LegendNANA
02:00 12.6 10.2 86 16 19   97.81     LegendNANA
03:00 12.4 10.5 88 15 17   97.71     LegendNANA
04:00 12.7 10.5 86 15 15   97.69     LegendNANA
05:00 12.7 10.3 86 16 15   97.69     LegendNANA
06:00 12.6 10.1 85 15 18   97.64     LegendNANA
07:00 12.5 9.7 83 16 17   97.64     LegendNANA
08:00 12.3 9.5 83 15 19   97.65     LegendNANA
09:00 12.4 9.3 81 15 16   97.69     LegendNANA
10:00 12.6 9.5 82 15 18   97.68     LegendNANA
11:00 11.7 10.2 90 15 15   97.67     LegendNANA
12:00 12.1 10.4 90 14 14   97.54     LegendNANA
13:00 12.3 10.5 89 15 21   97.51     LegendNANA
14:00 12.7 10.6 87 16 19   97.51     LegendNANA
15:00 13.5 10.9 85 15 14   97.50     LegendNANA
16:00 14.1 11.0 82 16 12   97.49     LegendNANA
17:00 14.5 11.0 80 16 12   97.49     LegendNANA
18:00 14.6 11.4 81 16 11   97.49     LegendNANA
19:00 14.2 11.4 83 17 7   97.56     LegendNANA
20:00 14.6 11.6 82 18 11   97.62     LegendNANA
21:00 14.5 11.5 82 19 9   97.63     LegendNANA
22:00 14.0 11.4 85 17 8   97.63     LegendNANA
23:00 14.2 11.6 84 18 8   97.64     LegendNANA

Notes on Data Quality.

Legend

  • E = Estimated
  • M = Missing
  • NA = Not Available
  • ‡ = Partner data that is not subject to review by the National Climate Archives
Date modified: